Regional Weather Roundup
Issued by NWS

Home | Current Version | Previous Version | Graphics & Text | Print | Product List | Glossary On
Versions: 1 2 3 4 5 6 7 8 9 10 11 12 13 14 15 16 17 18 19 20 21 22 23 24 25 26 27 28 29 30 31 32 33 34 35 36 37 38 39 40 41 42 43 44 45 46 47 48 49 50
000
ASUS43 KMPX 231301
RWRMN
WEATHER ROUNDUP FOR MINNESOTA
NATIONAL WEATHER SERVICE TWIN CITIES/CHANHASSEN MN
800 AM CDT TUE AUG 23 2016


NOTE: "FAIR" INDICATES FEW OR NO CLOUDS BELOW 12,000 FEET WITH NO
SIGNIFICANT WEATHER AND/OR OBSTRUCTIONS TO VISIBILITY. N/A MEANS
CURRENT SKY AND/OR WEATHER CONDITIONS ARE NOT AVAILABLE.

MNZ060>063-068>070-231400-
   Twin Cities Metro

CITY           SKY/WX    TMP DP  RH WIND       PRES   REMARKS
TWIN CITIES    MOSUNNY   68  60  75 S12       29.95S
ST PAUL        MOSUNNY   67  60  78 SE8       29.96S
CRYSTAL        MOSUNNY   71  58  63 S14G23    29.92S
LAKEVILLE      MOSUNNY   64  61  88 S8        29.97R
EDEN PRAIRIE   MOSUNNY   70  60  70 S13       29.94S
LAKEVILLE      MOSUNNY   64  61  88 S8        29.97R
SOUTH ST PAUL  MOSUNNY   67  60  78 SE9       29.96S
LAKE ELMO      FAIR      68  61  77 S10       29.98S
$$
MNZ001>005-007-008-013>017-022>024-027-028-231400-
   Northwest Minnesota

CITY           SKY/WX    TMP DP  RH WIND       PRES   REMARKS
BEMIDJI        CLOUDY    66  61  82 S7        29.78S
HALLOCK        MOSUNNY   72  66  83 SE13      29.63S
ROSEAU         CLOUDY    70  64  83 SE13      29.69F
WARROAD        CLOUDY    70  64  83 SE10      29.71F
THIEF RVR FALL MOSUNNY   70  63  78 S18G24    29.70R
CROOKSTON      CLOUDY    72  63  73 S21G29    29.67S
FOSSTON        SUNNY     68  61  77 S10       29.74R
DETROIT LAKES  SUNNY     70  61  73 S13       29.79R
MOORHEAD       MOSUNNY   70  61  73 S14G21    29.72R
PARK RAPIDS    SUNNY     67  60  78 SE13      29.80F
MAHNOMEN       FAIR      69  62  77 S10G16    29.74R
$$
MNZ006-009>011-018-025>026-231400-
   North Central Minnesota

CITY           SKY/WX    TMP DP  RH WIND       PRES   REMARKS
BAUDETTE       CLOUDY    67  64  90 SE8       29.75R
FLAG ISLAND    CLOUDY    70  64  83 SE7       29.72S HAZE
INTL FALLS     CLOUDY    66  63  90 SE5       29.80S
WASKISH        CLOUDY    68  63  83 SE8       29.76S
BIG FORK       CLOUDY    68  61  77 S9        29.82F
LONGVILLE      CLOUDY    66  61  82 S7        29.83S
GRAND RAPIDS   CLOUDY    66  61  84 S9G18     29.87S
CRANE LAKE     CLOUDY    64  61  88 S6        29.86F
ORR            CLOUDY    64  59  82 SE7       29.82F
COOK           CLOUDY    64  61  88 SE7       29.87F
WALKER         FAIR      66  60  81 SE7       29.80S
$$
MNZ012-019>021-037-231400-
   Northeast Minnesota

CITY           SKY/WX    TMP DP  RH WIND       PRES   REMARKS
DULUTH         MOSUNNY   68  61  78 SW15G21   29.91S
ELY            CLOUDY    66  59  77 S7        29.90S
HIBBING        CLOUDY    62  60  93 S6        29.88S
EVELETH        CLOUDY    64  60  86 S3        29.90F
DULUTH HARBOR  SUNNY     72  63  73 SW13      29.90S
TWO HARBORS    CLOUDY    64  61  88 CALM      29.90S
SILVER BAY     CLOUDY    63  61  94 CALM      29.91S
GRAND MARAIS     N/A     67  64  90 CALM      29.92S
G MARAIS ARPRT CLOUDY    64  57  77 S6        29.97S
$$
MNZ029>031-032-039>041-046>048-054>057-064-231400-
   West Central Minnesota

CITY           SKY/WX    TMP DP  RH WIND       PRES   REMARKS
FERGUS FALLS     N/A     70  61  73 S16G23    29.78R
WHEATON        MOSUNNY   70  63  78 SE9       29.77S
MORRIS         PTSUNNY   66  63  88 SE13      29.80S
ALEXANDRIA     MOSUNNY   68  60  75 S10       29.85R
ELBOW LAKE     FAIR      67  61  80 S18       29.79S
WADENA         SUNNY     66  59  77 S8        29.81S
GLENWOOD       MOSUNNY   68  61  77 S15G21    29.85S
APPLETON       MOSUNNY   70  61  73 S10       29.81S
BENSON         MOSUNNY   68  61  77 S12       29.83S
ORTONVILLE     PTSUNNY   68  61  77 S9        29.79S
MADISON        MOSUNNY   70  61  73 S10       29.82R
WILLMAR        FAIR      68  63  83 S12       29.88S
$$
MNZ033>034-036-042>043-049>051-058-059-231400-
   Central Minnesota

CITY           SKY/WX    TMP DP  RH WIND       PRES   REMARKS
ST CLOUD       MOSUNNY   67  63  87 S13       29.89S
SAUK CENTRE    FAIR      67  61  82 S10G18    29.86S
PAYNESVILLE    MOSUNNY   66  61  82 S12G21    29.88S
AITKIN         SUNNY     72  59  64 S13G18    29.86S
PINE RIVER     MOSUNNY   66  61  82 SE8       29.87F
BRAINERD       MOSUNNY   67  61  81 S16G24    29.86S
LONG PRAIRIE   FAIR      64  61  88 SE10G17   29.86S
LITTLE FALLS   PTSUNNY   68  59  73 SE8       29.87S
LITCHFIELD     MOSUNNY   68  64  88 S6        29.90S
BUFFALO        MOSUNNY   68  59  74 S8        29.93S
MAPLE LAKE     MOSUNNY   68  63  82 S8        29.92S
HUTCHINSON     MOSUNNY   67  63  86 SE6       29.92S
$$
MNZ037-044-045-052-053-231400-
   East Central Minnesota

CITY           SKY/WX    TMP DP  RH WIND       PRES   REMARKS
PRINCETON      MOSUNNY   70  63  78 S10       29.91S
MORA           MOSUNNY   64  59  82 S8        29.93S
CAMBRIDGE      MOSUNNY   70  59  68 S8        29.91S
RUSH CITY      MOSUNNY   66  61  83 S8        29.93F
MOOSE LAKE     SUNNY     64  59  82 S8        29.89S
HINCKLEY       FAIR      66  63  88 S8        29.92F
CLOQUET        SUNNY     66  59  77 S9        29.91S
MCGREGOR       SUNNY     66  61  82 S13       29.89S
$$
MNZ071>073-080-081-089-090-097-098-231400-
   Southwest Minnesota

CITY           SKY/WX    TMP DP  RH WIND       PRES   REMARKS
MONTEVIDEO     PTSUNNY   68  61  77 SW10      29.85S
GRANITE FALLS  PTSUNNY   70  64  80 S10       29.87R
CANBY          MOSUNNY   70  61  72 S7        29.83S
MARSHALL       MOSUNNY   69  62  78 S14G23    29.86S
REDWOOD FALLS  MOSUNNY   68  61  78 S13       29.88S
OLIVIA         CLOUDY    70  63  78 S10       29.88S
PIPESTONE      CLOUDY    64  61  88 S12       29.88S
WINDOM         SUNNY     68  61  77 S12       29.92S
WORTHINGTON    MOSUNNY   67  61  81 S13       29.93R
JACKSON        SUNNY     64  57  77 S10       29.95S
TRACY          MOSUNNY   68  62  82 S13G20    29.87S
$$
MNZ065>067-074>077-082>085-091>093-231400-
   South Central Minnesota

CITY           SKY/WX    TMP DP  RH WIND       PRES   REMARKS
MANKATO        MOSUNNY   66  59  77 S12       29.95S
NEW ULM          N/A     64  61  88 S15       29.92R
ST JAMES       SUNNY     61  55  82 S10       29.94S
GLENCOE        MOSUNNY   67  64  87 S6        29.92S
FARIBAULT      MOSUNNY   64  61  88 S10G16    29.99R
OWATONNA       MOSUNNY   64  57  77 S10G18    29.99S
WASECA         MOSUNNY   64  59  82 S15G21    29.99S
ALBERT LEA     MOSUNNY   64  61  88 S9        30.01S FOG
$$
MNZ078>079-086>088-094>096-231400-
   Southeast Minnesota

CITY           SKY/WX    TMP DP  RH WIND       PRES   REMARKS
ROCHESTER      MOSUNNY   64  60  87 S12G20    30.04S
RED WING       MOSUNNY   70  61  73 SE7       29.99R
DODGE CENTER   MOSUNNY   64  59  82 S14       30.02R
WINONA         MOSUNNY   70  59  68 SE5       30.05S
AUSTIN         MOSUNNY   63  59  88 S7        30.02S
PRESTON        MOSUNNY   63  58  84 S8        30.07R
$$
ABBREVIATIONS USED IN REMARKS
   TC - TEMPERATURES IN CELSIUS
  WCI - WIND CHILL INDEX
   HX - HEAT INDEX
  VSB - VISIBILITY
$$



USA.gov is the U.S. government's official web portal to all federal, state and local government web resources and services.